White Plains, CT

5:57 AM EDT on August 17, 2017 (GMT -0400)
Westchester County

Weather History for KHPN - November, 2013

Change the Weather History Date:

Tuesday, November 12, 2013

  Actual Average Record
Temperature  
Mean Temperature 38 °F -  
Max Temperature 48 °F 48 °F 64 °F (2010)
Min Temperature 28 °F 34 °F 27 °F (1976)
Degree Days  
Heating Degree Days 27    
Moisture  
Dew Point 24 °F    
Average Humidity 64    
Maximum Humidity 93    
Minimum Humidity 46    
Precipitation  
Precipitation 0.07 in - - ()
Sea Level Pressure  
Sea Level Pressure 30.12 in    
Wind  
Wind Speed 11 mph (NW)    
Max Wind Speed 20 mph    
Max Gust Speed 25 mph    
Visibility 8 miles    
Events Rain , Snow    
Averages and records for this station are not official NWS values.
T = Trace of Precipitation, MM = Missing Value Source: NWS Daily Summary

Daily Weather History Graph

Daily Weather History Graph

Search for Another Location

Airport or City:

Trip Planner

Search our weather history database for the weather conditions in past years. The results will help you decide how hot, cold, wet, or windy it might be!

Date:

Astronomy

Nov. 12, 2013 Rise Set
Actual Time 6:39 AM EST 4:38 PM EST
Civil Twilight 6:09 AM EST 5:07 PM EST
Nautical Twilight 5:36 AM EST 5:40 PM EST
Astronomical Twilight 5:04 AM EST 6:13 PM EST
Moon 1:53 PM EST (11/12) 1:23 AM EST (11/12)
Length of Visible Light 10h 57m
Length of Day
9h 59m
Waxing Gibbous, 76% of the Moon is Illuminated
Nov 12
Waxing Gibbous
Nov 17
Full
Nov 25
Last Quarter
Dec 2
New
Dec 9
First Quarter

Hourly Weather History & Observations

Time (EST) Temp. Windchill Dew Point Humidity Pressure Visibility Wind Dir Wind Speed Gust Speed Precip Events Conditions
12:56 AM 48.9 °F - 28.9 °F 46% 29.95 in 10.0 mi WSW 5.8 mph - N/A   Overcast
1:56 AM 48.9 °F - 30.0 °F 48% 29.93 in 10.0 mi West 6.9 mph - N/A   Overcast
2:56 AM 48.9 °F - 28.9 °F 46% 29.94 in 10.0 mi West 4.6 mph - N/A   Overcast
3:56 AM 46.9 °F - 33.1 °F 59% 29.94 in 10.0 mi NW 12.7 mph 17.3 mph 0.00 in   Overcast
4:56 AM 45.0 °F 38.9 °F 35.1 °F 68% 29.96 in 10.0 mi NW 12.7 mph - 0.00 in Rain Light Rain
5:56 AM 37.0 °F 27.7 °F 33.1 °F 86% 30.01 in 6.0 mi NW 16.1 mph 24.2 mph 0.01 in Rain Light Rain
6:35 AM 35.6 °F 26.2 °F 32.0 °F 87% 30.03 in 1.2 mi NW 15.0 mph 24.2 mph 0.02 in Snow Light Snow
6:56 AM 34.0 °F 25.0 °F 30.9 °F 89% 30.06 in 1.2 mi NW 12.7 mph - 0.03 in Snow Light Snow
7:56 AM 33.1 °F 23.9 °F 30.9 °F 92% 30.10 in 0.8 mi NW 12.7 mph - 0.02 in Snow Light Snow
8:56 AM 32.0 °F 23.6 °F 30.0 °F 92% 30.11 in 1.0 mi NNW 10.4 mph - 0.01 in Snow Light Snow
9:23 AM 32.0 °F 24.2 °F 30.2 °F 93% 30.10 in 6.0 mi NNW 9.2 mph - 0.00 in   Mostly Cloudy
9:56 AM 33.1 °F 27.7 °F 28.9 °F 85% 30.12 in 10.0 mi NW 5.8 mph - 0.00 in   Mostly Cloudy
10:56 AM 34.0 °F 27.2 °F 27.0 °F 75% 30.12 in 10.0 mi NW 8.1 mph - N/A   Mostly Cloudy
11:56 AM 35.1 °F 25.9 °F 24.1 °F 64% 30.12 in 10.0 mi NW 13.8 mph - N/A   Mostly Cloudy
12:56 PM 35.1 °F 24.1 °F 21.0 °F 57% 30.13 in 10.0 mi NNW 19.6 mph 25.3 mph N/A   Mostly Cloudy
1:56 PM 34.0 °F 23.4 °F 18.0 °F 52% 30.15 in 10.0 mi NW 17.3 mph 24.2 mph N/A   Mostly Cloudy
2:56 PM 34.0 °F 25.5 °F 19.0 °F 54% 30.16 in 10.0 mi NNW 11.5 mph - N/A   Mostly Cloudy
3:56 PM 34.0 °F 25.5 °F 18.0 °F 52% 30.18 in 10.0 mi NNW 11.5 mph - N/A   Mostly Cloudy
4:56 PM 34.0 °F 25.0 °F 16.0 °F 48% 30.19 in 10.0 mi NW 12.7 mph 18.4 mph N/A   Clear
5:56 PM 33.1 °F 23.9 °F 17.1 °F 52% 30.22 in 10.0 mi NW 12.7 mph - N/A   Clear
6:56 PM 32.0 °F 22.1 °F 16.0 °F 52% 30.26 in 10.0 mi NW 13.8 mph - N/A   Clear
7:56 PM 30.0 °F 19.1 °F 14.0 °F 51% 30.26 in 10.0 mi NW 15.0 mph 20.7 mph N/A   Clear
8:56 PM 30.0 °F 18.7 °F 14.0 °F 51% 30.27 in 10.0 mi NW 16.1 mph - N/A   Clear
9:56 PM 30.0 °F 21.1 °F 16.0 °F 56% 30.27 in 10.0 mi NW 10.4 mph 17.3 mph N/A   Clear
10:56 PM 28.9 °F 17.7 °F 16.0 °F 58% 30.27 in 10.0 mi NW 15.0 mph - N/A   Clear
11:56 PM 28.9 °F 18.6 °F 18.0 °F 64% 30.28 in 10.0 mi NW 12.7 mph - N/A   Clear